Time,TemperatureF,DewpointF,PressureIn,WindDirection,WindDirectionDegrees,WindSpeedMPH,WindSpeedGustMPH,Humidity,HourlyPrecipIn,Conditions,Clouds,dailyrainin,SoftwareType,DateUTC
2013-07-14 00:04:00,52.9,51.0,30.09,NW,311,5.0,6.0,94,0.00,,,0.11,weatherlink.com 1.10,2013-07-14 06:04:00,
2013-07-14 00:19:00,52.8,51.0,30.07,NW,311,2.0,6.0,94,0.00,,,0.00,weatherlink.com 1.10,2013-07-14 06:19:00,
2013-07-14 00:34:00,52.7,51.0,30.07,West,275,6.0,8.0,94,0.00,,,0.00,weatherlink.com 1.10,2013-07-14 06:34:00,
2013-07-14 00:49:00,52.4,51.0,30.05,West,273,4.0,7.0,94,0.00,,,0.00,weatherlink.com 1.10,2013-07-14 06:49:00,
2013-07-14 01:04:00,51.9,50.0,30.05,West,266,3.0,5.0,93,0.00,,,0.00,weatherlink.com 1.10,2013-07-14 07:04:00,
2013-07-14 01:19:00,51.7,50.0,30.04,West,266,0.0,5.0,93,0.00,,,0.00,weatherlink.com 1.10,2013-07-14 07:19:00,
2013-07-14 01:34:00,51.2,49.0,30.05,West,266,4.0,4.0,93,0.00,,,0.00,weatherlink.com 1.10,2013-07-14 07:34:00,
2013-07-14 01:49:00,51.1,49.0,30.05,West,266,4.0,5.0,93,0.00,,,0.00,weatherlink.com 1.10,2013-07-14 07:49:00,
2013-07-14 02:04:00,51.2,49.0,30.05,West,266,4.0,5.0,93,0.00,,,0.00,weatherlink.com 1.10,2013-07-14 08:04:00,
2013-07-14 02:19:00,51.0,49.0,30.05,West,266,1.0,6.0,93,0.00,,,0.00,weatherlink.com 1.10,2013-07-14 08:19:00,
2013-07-14 02:34:00,50.8,49.0,30.05,West,269,4.0,10.0,93,0.00,,,0.00,weatherlink.com 1.10,2013-07-14 08:34:00,
2013-07-14 02:49:00,50.6,49.0,30.05,West,267,3.0,10.0,93,0.00,,,0.00,weatherlink.com 1.10,2013-07-14 08:49:00,
2013-07-14 03:04:00,50.7,49.0,30.05,WSW,256,5.0,9.0,93,0.00,,,0.00,weatherlink.com 1.10,2013-07-14 09:04:00,
2013-07-14 03:19:00,50.9,49.0,30.05,West,272,8.0,8.0,92,0.00,,,0.00,weatherlink.com 1.10,2013-07-14 09:19:00,
2013-07-14 03:34:00,51.1,49.0,30.06,West,268,3.0,8.0,92,0.00,,,0.00,weatherlink.com 1.10,2013-07-14 09:34:00,
2013-07-14 03:49:00,51.0,49.0,30.06,West,279,4.0,8.0,92,0.00,,,0.00,weatherlink.com 1.10,2013-07-14 09:49:00,
2013-07-14 04:04:00,51.2,49.0,30.06,West,271,7.0,8.0,91,0.00,,,0.00,weatherlink.com 1.10,2013-07-14 10:04:00,
2013-07-14 04:19:00,51.5,49.0,30.07,West,277,7.0,7.0,90,0.00,,,0.00,weatherlink.com 1.10,2013-07-14 10:19:00,
2013-07-14 04:34:00,51.6,48.0,30.07,West,275,5.0,9.0,88,0.00,,,0.00,weatherlink.com 1.10,2013-07-14 10:34:00,
2013-07-14 04:49:00,51.8,48.0,30.07,West,273,3.0,8.0,88,0.00,,,0.00,weatherlink.com 1.10,2013-07-14 10:49:00,
2013-07-14 05:04:00,51.9,48.0,30.07,West,281,4.0,8.0,87,0.00,,,0.00,weatherlink.com 1.10,2013-07-14 11:04:00,
2013-07-14 05:19:00,52.2,48.0,30.07,West,277,3.0,7.0,86,0.00,,,0.00,weatherlink.com 1.10,2013-07-14 11:19:00,
2013-07-14 05:34:00,52.5,48.0,30.07,WNW,285,2.0,8.0,85,0.00,,,0.00,weatherlink.com 1.10,2013-07-14 11:34:00,
2013-07-14 05:49:00,53.1,48.0,30.07,WNW,284,5.0,7.0,84,0.00,,,0.00,weatherlink.com 1.10,2013-07-14 11:49:00,
2013-07-14 06:04:00,53.4,48.0,30.07,WSW,258,6.0,8.0,81,0.00,,,0.00,weatherlink.com 1.10,2013-07-14 12:04:00,
2013-07-14 06:20:00,53.8,49.0,30.07,West,263,5.0,8.0,83,0.00,,,0.00,weatherlink.com 1.10,2013-07-14 12:20:00,
2013-07-14 06:35:00,54.4,48.0,30.08,West,277,4.0,8.0,79,0.00,,,0.00,weatherlink.com 1.10,2013-07-14 12:35:00,
2013-07-14 06:50:00,55.6,50.0,30.08,WNW,284,3.0,6.0,80,0.00,,,0.00,weatherlink.com 1.10,2013-07-14 12:50:00,
2013-07-14 07:05:00,57.2,50.0,30.08,WNW,286,0.0,2.0,77,0.00,,,0.00,weatherlink.com 1.10,2013-07-14 13:05:00,
2013-07-14 07:20:00,58.4,51.0,30.09,North,11,0.0,9.0,75,0.00,,,0.00,weatherlink.com 1.10,2013-07-14 13:20:00,
2013-07-14 07:35:00,58.2,52.0,30.10,NE,56,2.0,7.0,79,0.00,,,0.00,weatherlink.com 1.10,2013-07-14 13:35:00,
2013-07-14 07:50:00,58.3,51.0,30.10,ENE,59,0.0,3.0,78,0.00,,,0.00,weatherlink.com 1.10,2013-07-14 13:50:00,
2013-07-14 08:05:00,58.1,50.0,30.10,ENE,76,0.0,3.0,75,0.00,,,0.00,weatherlink.com 1.10,2013-07-14 14:05:00,
2013-07-14 08:20:00,58.5,50.0,30.10,East,80,0.0,3.0,73,0.00,,,0.00,weatherlink.com 1.10,2013-07-14 14:20:00,
2013-07-14 08:35:00,59.5,51.0,30.10,NE,49,1.0,7.0,74,0.00,,,0.00,weatherlink.com 1.10,2013-07-14 14:35:00,
2013-07-14 08:50:00,60.6,52.0,30.11,ENE,78,0.0,5.0,74,0.00,,,0.00,weatherlink.com 1.10,2013-07-14 14:50:00,
2013-07-14 09:05:00,61.5,53.0,30.12,NE,46,2.0,7.0,73,0.00,,,0.00,weatherlink.com 1.10,2013-07-14 15:05:00,
2013-07-14 09:20:00,62.3,54.0,30.11,ENE,57,1.0,5.0,73,0.00,,,0.00,weatherlink.com 1.10,2013-07-14 15:20:00,
2013-07-14 09:36:00,63.0,53.0,30.12,NE,51,2.0,9.0,69,0.00,,,0.00,weatherlink.com 1.10,2013-07-14 15:36:00,
2013-07-14 09:51:00,63.1,54.0,30.12,East,80,5.0,8.0,72,0.00,,,0.00,weatherlink.com 1.10,2013-07-14 15:51:00,
2013-07-14 10:06:00,63.3,54.0,30.13,East,95,3.0,9.0,72,0.00,,,0.00,weatherlink.com 1.10,2013-07-14 16:06:00,
2013-07-14 10:21:00,63.8,55.0,30.14,NE,47,4.0,8.0,72,0.00,,,0.00,weatherlink.com 1.10,2013-07-14 16:21:00,
2013-07-14 10:36:00,63.8,51.0,30.15,NNE,23,4.0,13.0,63,0.01,,,0.01,weatherlink.com 1.10,2013-07-14 16:36:00,
2013-07-14 10:51:00,63.4,53.0,30.16,ENE,73,2.0,10.0,68,0.01,,,0.01,weatherlink.com 1.10,2013-07-14 16:51:00,
2013-07-14 11:06:00,64.5,55.0,30.16,ENE,69,3.0,14.0,70,0.01,,,0.01,weatherlink.com 1.10,2013-07-14 17:06:00,
2013-07-14 11:21:00,62.7,54.0,30.17,NE,42,7.0,11.0,74,0.01,,,0.01,weatherlink.com 1.10,2013-07-14 17:21:00,
2013-07-14 11:36:00,61.3,55.0,30.17,ENE,69,1.0,12.0,79,0.00,,,0.01,weatherlink.com 1.10,2013-07-14 17:36:00,
2013-07-14 11:51:00,59.7,54.0,30.17,ENE,63,2.0,8.0,81,0.00,,,0.01,weatherlink.com 1.10,2013-07-14 17:51:00,
2013-07-14 12:06:00,59.5,54.0,30.18,East,96,0.0,7.0,83,0.00,,,0.01,weatherlink.com 1.10,2013-07-14 18:06:00,
2013-07-14 12:21:00,58.8,54.0,30.17,NE,47,2.0,9.0,84,0.00,,,0.01,weatherlink.com 1.10,2013-07-14 18:21:00,
2013-07-14 12:36:00,58.2,53.0,30.18,ENE,63,4.0,8.0,84,0.00,,,0.01,weatherlink.com 1.10,2013-07-14 18:36:00,
2013-07-14 12:51:00,58.3,54.0,30.17,East,94,3.0,5.0,85,0.00,,,0.01,weatherlink.com 1.10,2013-07-14 18:51:00,
2013-07-14 13:06:00,58.0,54.0,30.18,East,92,3.0,7.0,87,0.00,,,0.01,weatherlink.com 1.10,2013-07-14 19:06:00,
2013-07-14 13:21:00,57.6,54.0,30.17,ENE,77,1.0,4.0,87,0.00,,,0.01,weatherlink.com 1.10,2013-07-14 19:21:00,
2013-07-14 13:36:00,57.5,54.0,30.18,ENE,77,0.0,1.0,89,0.00,,,0.01,weatherlink.com 1.10,2013-07-14 19:36:00,
2013-07-14 13:51:00,57.1,54.0,30.18,ENE,77,0.0,7.0,90,0.00,,,0.01,weatherlink.com 1.10,2013-07-14 19:51:00,
2013-07-14 14:06:00,57.2,55.0,30.18,ENE,77,0.0,2.0,91,0.00,,,0.01,weatherlink.com 1.10,2013-07-14 20:06:00,
2013-07-14 14:21:00,58.5,56.0,30.17,East,97,0.0,6.0,90,0.00,,,0.01,weatherlink.com 1.10,2013-07-14 20:21:00,
2013-07-14 14:36:00,60.3,55.0,30.17,NE,35,0.0,7.0,82,0.00,,,0.01,weatherlink.com 1.10,2013-07-14 20:36:00,
2013-07-14 14:51:00,61.3,54.0,30.17,NNE,32,5.0,7.0,77,0.00,,,0.01,weatherlink.com 1.10,2013-07-14 20:51:00,
2013-07-14 15:06:00,61.7,54.0,30.17,NE,51,2.0,5.0,76,0.00,,,0.01,weatherlink.com 1.10,2013-07-14 21:06:00,
2013-07-14 15:21:00,61.4,54.0,30.17,NE,42,0.0,7.0,77,0.00,,,0.01,weatherlink.com 1.10,2013-07-14 21:21:00,
2013-07-14 15:36:00,60.7,53.0,30.17,NE,50,2.0,5.0,75,0.00,,,0.01,weatherlink.com 1.10,2013-07-14 21:36:00,
2013-07-14 15:51:00,60.5,53.0,30.16,NE,50,1.0,4.0,76,0.00,,,0.01,weatherlink.com 1.10,2013-07-14 21:51:00,
2013-07-14 16:06:00,60.9,54.0,30.16,NNE,27,2.0,4.0,77,0.00,,,0.01,weatherlink.com 1.10,2013-07-14 22:06:00,
2013-07-14 16:21:00,62.1,54.0,30.15,NW,322,2.0,6.0,75,0.00,,,0.01,weatherlink.com 1.10,2013-07-14 22:21:00,
2013-07-14 16:36:00,62.5,55.0,30.15,WNW,284,4.0,9.0,76,0.00,,,0.01,weatherlink.com 1.10,2013-07-14 22:36:00,
2013-07-14 16:51:00,62.5,54.0,30.14,West,279,2.0,4.0,74,0.00,,,0.01,weatherlink.com 1.10,2013-07-14 22:51:00,
2013-07-14 17:06:00,62.4,54.0,30.14,West,279,0.0,4.0,73,0.00,,,0.01,weatherlink.com 1.10,2013-07-14 23:06:00,
2013-07-14 17:21:00,62.4,54.0,30.13,West,279,0.0,3.0,74,0.00,,,0.01,weatherlink.com 1.10,2013-07-14 23:21:00,
2013-07-14 17:36:00,62.9,53.0,30.12,North,350,1.0,5.0,71,0.00,,,0.01,weatherlink.com 1.10,2013-07-14 23:36:00,
2013-07-14 17:51:00,63.2,53.0,30.12,WSW,255,5.0,6.0,70,0.00,,,0.01,weatherlink.com 1.10,2013-07-14 23:51:00,
2013-07-14 18:06:00,63.2,54.0,30.12,WNW,282,2.0,6.0,71,0.00,,,0.01,weatherlink.com 1.10,2013-07-15 00:06:00,
2013-07-14 18:21:00,62.9,51.0,30.12,WNW,282,0.0,3.0,66,0.00,,,0.01,weatherlink.com 1.10,2013-07-15 00:21:00,
2013-07-14 18:36:00,62.6,52.0,30.13,WNW,282,1.0,3.0,69,0.00,,,0.01,weatherlink.com 1.10,2013-07-15 00:36:00,
2013-07-14 18:51:00,62.2,53.0,30.13,WNW,282,0.0,0.0,71,0.00,,,0.01,weatherlink.com 1.10,2013-07-15 00:51:00,
2013-07-14 19:06:00,61.8,52.0,30.14,WNW,282,0.0,1.0,71,0.00,,,0.01,weatherlink.com 1.10,2013-07-15 01:06:00,
2013-07-14 19:21:00,61.5,52.0,30.14,WNW,282,0.0,0.0,71,0.00,,,0.01,weatherlink.com 1.10,2013-07-15 01:21:00,
2013-07-14 19:36:00,61.2,52.0,30.14,WNW,282,0.0,1.0,71,0.00,,,0.01,weatherlink.com 1.10,2013-07-15 01:36:00,
2013-07-14 19:51:00,60.9,52.0,30.14,WNW,282,0.0,1.0,73,0.00,,,0.01,weatherlink.com 1.10,2013-07-15 01:51:00,
2013-07-14 20:06:00,60.5,52.0,30.14,WNW,282,0.0,1.0,74,0.00,,,0.01,weatherlink.com 1.10,2013-07-15 02:06:00,
2013-07-14 20:21:00,60.3,53.0,30.14,WNW,282,0.0,0.0,76,0.00,,,0.01,weatherlink.com 1.10,2013-07-15 02:21:00,
2013-07-14 20:36:00,60.0,53.0,30.14,WNW,282,0.0,0.0,77,0.00,,,0.01,weatherlink.com 1.10,2013-07-15 02:36:00,
2013-07-14 20:51:00,57.9,52.0,30.13,NE,40,1.0,21.0,82,0.47,,,0.48,weatherlink.com 1.10,2013-07-15 02:51:00,
2013-07-14 21:06:00,56.0,52.0,30.12,NNW,327,3.0,5.0,87,0.61,,,0.62,weatherlink.com 1.10,2013-07-15 03:06:00,
2013-07-14 21:21:00,55.4,53.0,30.14,WSW,257,17.0,29.0,90,0.80,,,0.81,weatherlink.com 1.10,2013-07-15 03:21:00,
2013-07-14 21:36:00,53.7,51.0,30.14,East,86,0.0,12.0,91,1.28,,,1.29,weatherlink.com 1.10,2013-07-15 03:36:00,
2013-07-14 21:51:00,54.1,52.0,30.16,East,88,0.0,3.0,93,0.82,,,1.33,weatherlink.com 1.10,2013-07-15 03:51:00,
2013-07-14 22:06:00,54.3,52.0,30.16,South,188,1.0,5.0,93,0.80,,,1.42,weatherlink.com 1.10,2013-07-15 04:06:00,
2013-07-14 22:21:00,54.5,53.0,30.16,SSW,206,0.0,4.0,94,0.57,,,1.43,weatherlink.com 1.10,2013-07-15 04:21:00,
2013-07-14 22:37:00,54.4,53.0,30.15,West,265,7.0,8.0,94,0.15,,,1.45,weatherlink.com 1.10,2013-07-15 04:37:00,
2013-07-14 22:51:00,54.1,53.0,30.16,West,281,0.0,4.0,94,0.11,,,1.45,weatherlink.com 1.10,2013-07-15 04:51:00,
2013-07-14 23:06:00,53.9,52.0,30.14,West,271,5.0,7.0,94,0.02,,,1.45,weatherlink.com 1.10,2013-07-15 05:06:00,
2013-07-14 23:21:00,53.5,52.0,30.15,West,279,1.0,5.0,94,0.02,,,1.45,weatherlink.com 1.10,2013-07-15 05:21:00,
2013-07-14 23:36:00,53.1,52.0,30.14,West,260,7.0,7.0,94,0.00,,,1.45,weatherlink.com 1.10,2013-07-15 05:36:00,
2013-07-14 23:51:00,52.6,51.0,30.14,West,261,6.0,10.0,94,0.00,,,1.45,weatherlink.com 1.10,2013-07-15 05:51:00,